[[{"header":{"parameterUnit":"m.s-1","parameterCategory":1,"la1":30.2991,"la2":30.254,"lo1":-89.0895,"lo2":-89.0444,"dy":0.0017,"dx":0.0017,"nx":28,"ny":28,"refTime":"2023-10-08T09:00:00:Z","depth":0,"parameterNumber":2,"parameterNumberName":"U-component_of_WINDS"},"data":[0,0,0,0,0,0,0,0,0,0,0,0,0,0,0,0,0,0,0,0,0,0,0,0,0,0,0,0,0,0,0,0,0,0,0,0,0,0,0,0,0,0,0,0,0,0,0,0,0,0,0,0,0,0,0,0,0,0,1.8656,1.8657,0,1.8788,1.8789,1.8791,1.8821,1.882,1.8819,1.8819,1.8951,1.8955,1.896,0,0,0,0,0,0,0,0,0,0,0,0,0,1.8428,1.8432,1.8656,1.8658,1.8659,1.8787,1.8789,1.8791,1.8821,1.882,1.8819,1.8818,1.895,1.8955,1.896,0,0,0,0,0,0,0,0,0,0,0,0,0,1.854,1.8433,1.8656,1.869,1.8694,1.8787,1.8789,1.8792,1.8822,1.882,1.8819,1.8818,1.8948,1.8954,1.8961,1.9028,0,0,1.8981,1.8984,0,0,0,0,0,0,0,0,1.8534,1.8548,1.8683,1.8688,1.8693,1.8787,1.8758,1.8871,1.8822,1.8773,1.8819,1.8817,1.8897,1.8908,1.8936,1.9034,1.904,1.8982,1.8985,1.8988,1.899,0,0,0,0,0,0,0,1.8526,1.8543,1.8708,1.8685,1.8691,1.8698,1.8712,1.8779,1.8841,1.8777,1.878,1.8795,1.89,1.8929,1.8939,1.9042,1.8981,1.8987,1.8991,1.8994,1.9201,1.9202,0,0,0,0,0,0,1.8512,1.8536,1.8704,1.8712,1.8608,1.8703,1.8719,1.8758,1.8841,1.8852,1.8796,1.8796,1.8919,1.8931,1.8944,1.9027,1.8988,1.8994,1.8998,1.9199,1.9201,1.9203,0,0,0,0,0,0,1.8507,1.8527,1.8699,1.8625,1.8647,1.8708,1.8752,1.8761,1.8791,1.8855,1.8866,1.8815,1.8918,1.8935,1.9007,1.9032,1.8997,1.9003,1.9198,1.92,1.9202,1.9193,0,0,0,0,0,0,1.8501,1.8525,1.8552,1.8625,1.8651,1.876,1.8753,1.8765,1.8802,1.8803,1.8875,1.8886,1.8918,1.8997,1.9013,1.904,1.9008,1.9196,1.9199,1.9201,1.9192,1.9195,1.9198,0,0,0,0,0,1.8493,1.8544,1.8553,1.8573,1.8686,1.8761,1.8776,1.8813,1.8804,1.8831,1.8872,1.8884,1.9027,1.9004,1.9023,1.9052,1.9194,1.9198,1.9201,1.919,1.9194,1.9198,0,0,0,0,0,0,1.8471,1.8554,1.8565,1.8642,1.8695,1.8766,1.8801,1.8816,1.8872,1.887,1.8913,1.8929,1.8998,1.9033,1.9006,1.912,1.911,1.9117,1.9095,1.91,1.9103,1.9092,1.9014,0,0,0,0,0,1.8476,1.8531,1.86,1.8661,1.8687,1.874,1.8774,1.8798,1.8853,1.8875,1.8922,1.8975,1.9031,1.9068,1.9124,1.9197,1.9212,1.9226,1.923,1.9232,1.9237,1.9277,1.9283,1.9215,1.9215,1.9215,0,0,1.8485,1.8537,1.8569,1.8658,1.8702,1.8757,1.8758,1.8817,1.8857,1.8884,1.8955,1.8991,1.9053,1.9125,1.916,1.9156,1.926,1.9236,1.9238,1.9242,1.9281,1.9288,1.9293,1.9217,1.9217,1.9216,0,0,1.853,1.8576,1.8631,1.8675,1.874,1.8775,1.8788,1.8858,1.8883,1.8955,1.8976,1.9025,1.9122,1.9164,1.9199,1.9259,1.9272,1.9277,1.9292,1.9331,1.9336,1.9341,1.9361,1.9368,1.9282,1.9282,1.9282,0,1.8533,1.8617,1.8657,1.8715,1.8752,1.878,1.8835,1.8876,1.8956,1.8981,1.8976,1.9098,1.9142,1.9224,1.9238,1.9266,1.9281,1.9268,1.9332,1.9338,1.9343,1.9362,1.937,1.9282,1.9282,1.9282,1.9282,0,1.8617,1.8675,1.8712,1.8789,1.8831,1.8887,1.8934,1.8972,1.8992,1.9027,1.9099,1.9153,1.9219,1.9241,1.9261,1.9326,1.9321,1.9324,1.9314,1.9349,1.9367,1.9375,1.9282,1.9282,1.9282,1.9282,0,0,1.8651,1.875,1.8762,1.8797,1.8871,1.8917,1.8974,1.9039,1.907,1.9125,1.9172,1.9254,1.9256,1.9295,1.9321,1.9355,1.9397,1.9353,1.9355,1.9358,1.9469,1.9465,1.9473,1.9406,1.9408,1.9409,1.9463,0,1.8703,1.8806,1.8843,1.8928,1.8981,1.9008,1.9057,1.9108,1.9142,1.9191,1.9229,1.9285,1.9286,1.9309,1.9344,1.9384,1.9419,1.9381,1.9449,1.9451,1.9431,1.9483,1.948,1.9528,1.9471,1.9472,1.9473,0,1.8778,1.8833,1.8923,1.899,1.9014,1.9057,1.912,1.9167,1.9225,1.9247,1.929,1.9314,1.9373,1.9361,1.9442,1.9415,1.9445,1.9469,1.9472,1.9478,1.9463,1.9489,1.9544,1.9551,1.9486,1.9485,1.9484,0,1.8791,1.8888,1.8954,1.8983,1.9064,1.9094,1.9128,1.9185,1.9221,1.9276,1.93,1.936,1.9393,1.9439,1.9477,1.9465,1.9555,1.9546,1.9573,1.9572,1.9589,1.9587,1.9648,1.9612,1.9612,1.9612,1.9612,0,1.8844,1.8897,1.8961,1.9001,1.9061,1.9103,1.9161,1.9198,1.9247,1.9294,1.9322,1.9365,1.9414,1.9464,1.9494,1.9556,1.9571,1.9589,1.9596,1.9586,1.9583,1.9605,1.9602,1.9614,1.9613,1.9613,1.9613,0,1.8868,1.8913,1.8987,1.9057,1.9076,1.9117,1.9176,1.9216,1.9251,1.931,1.9326,1.9382,1.9441,1.9484,1.9561,1.9582,1.9647,1.9655,1.9627,1.9631,1.9655,1.9651,1.973,1.9742,1.9699,1.97,1.97,0,1.8898,1.894,1.9015,1.9048,1.9083,1.9137,1.9175,1.9218,1.9256,1.9324,1.9355,1.9416,1.9467,1.9561,1.9607,1.9666,1.9674,1.9698,1.9683,1.9671,1.9672,1.9669,1.9672,1.9699,1.97,1.97,1.97,0,1.8946,1.8966,1.902,1.9081,1.9125,1.9175,1.9226,1.9252,1.9304,1.9344,1.9406,1.9446,1.9524,1.9584,1.9647,1.9682,1.9699,1.9705,1.9714,1.9702,1.9684,1.9692,1.9631,1.9702,1.9702,1.9702,1.9702,1.9702,1.8973,1.9011,1.9069,1.9127,1.917,1.9216,1.9256,1.9297,1.9349,1.9416,1.9439,1.9502,1.9557,1.9644,1.9679,1.9728,1.9728,1.9741,1.9744,1.9747,1.9745,1.9677,1.974,1.974,1.974,1.974,1.974,0,1.9021,1.906,1.9113,1.9183,1.9228,1.9242,1.9298,1.9335,1.939,1.9441,1.9491,1.9561,1.9619,1.967,1.973,1.976,1.9769,1.9774,1.9771,1.9779,1.9743,1.9728,1.9765,1.9765,1.9765,1.9765,1.9765,1.9765,1.9051,1.9115,1.9141,1.9226,1.9265,1.9327,1.9358,1.94,1.9441,1.9517,1.9566,1.9599,1.965,1.9714,1.9768,1.9781,1.9801,1.9804,1.9819,1.9784,1.9781,1.9778,1.9765,1.9808,1.9809,1.985,1.9851,1.9851]},{"header":{"parameterUnit":"m.s-1","parameterCategory":1,"la1":30.2991,"la2":30.254,"lo1":-89.0895,"lo2":-89.0444,"dy":0.0017,"dx":0.0017,"nx":28,"ny":28,"refTime":"2023-10-08T09:00:00:Z","depth":0,"parameterNumber":3,"parameterNumberName":"V-component_of_WINDS"},"data":[0,0,0,0,0,0,0,0,0,0,0,0,0,0,0,0,0,0,0,0,0,0,0,0,0,0,0,0,0,0,0,0,0,0,0,0,0,0,0,0,0,0,0,0,0,0,0,0,0,0,0,0,0,0,0,0,0,0,3.1073,3.1073,0,3.1066,3.1066,3.1066,3.1029,3.1028,3.1027,3.1026,3.102,3.102,3.1021,0,0,0,0,0,0,0,0,0,0,0,0,0,3.1052,3.1053,3.1073,3.1073,3.1073,3.1066,3.1066,3.1066,3.1029,3.1028,3.1027,3.1026,3.1019,3.102,3.1021,0,0,0,0,0,0,0,0,0,0,0,0,0,3.1055,3.1053,3.1073,3.1053,3.1051,3.1066,3.1066,3.1066,3.1029,3.1028,3.1026,3.1025,3.1019,3.102,3.1021,3.1054,0,0,3.1024,3.1024,0,0,0,0,0,0,0,0,3.1055,3.1056,3.1056,3.1055,3.1053,3.1047,3.1057,3.1062,3.1029,3.1038,3.1026,3.1024,3.103,3.103,3.1032,3.1054,3.1054,3.1024,3.1025,3.1025,3.1025,0,0,0,0,0,0,0,3.1055,3.1056,3.107,3.1056,3.1054,3.1045,3.1043,3.1057,3.1041,3.1037,3.1034,3.1034,3.1028,3.1031,3.1031,3.1054,3.1024,3.1025,3.1026,3.1026,3.1102,3.1103,0,0,0,0,0,0,3.1057,3.1056,3.107,3.107,3.105,3.1046,3.1045,3.105,3.1041,3.1038,3.1035,3.1032,3.103,3.103,3.1031,3.1068,3.1025,3.1026,3.1027,3.11,3.1102,3.1103,0,0,0,0,0,0,3.1057,3.1059,3.1071,3.1062,3.1063,3.1048,3.1054,3.1051,3.1053,3.104,3.1037,3.104,3.1029,3.1029,3.1048,3.1067,3.1027,3.1027,3.1099,3.1101,3.1103,3.1143,0,0,0,0,0,0,3.1057,3.1059,3.1072,3.1063,3.1064,3.1089,3.1055,3.1052,3.1055,3.1051,3.1044,3.1041,3.1028,3.1047,3.1049,3.1068,3.1028,3.1097,3.11,3.1102,3.114,3.1147,3.1152,0,0,0,0,0,3.1056,3.1084,3.1073,3.1075,3.1079,3.109,3.109,3.1074,3.1056,3.1069,3.106,3.1041,3.1065,3.1049,3.1052,3.1071,3.1096,3.1099,3.1102,3.1138,3.1145,3.1152,0,0,0,0,0,0,3.1096,3.1082,3.107,3.1095,3.1094,3.1084,3.1099,3.1083,3.1086,3.1083,3.1062,3.1061,3.1083,3.1079,3.1062,3.1102,3.1077,3.1081,3.1103,3.1111,3.1116,3.1116,3.1029,0,0,0,0,0,3.1107,3.1117,3.1105,3.1129,3.1129,3.1114,3.1118,3.1106,3.1103,3.1103,3.1095,3.1094,3.1101,3.1106,3.1111,3.114,3.1137,3.1154,3.116,3.1165,3.1168,3.1181,3.1188,3.1114,3.1114,3.1114,0,0,3.1132,3.1126,3.1133,3.1137,3.1134,3.1144,3.1114,3.1126,3.1133,3.1104,3.1121,3.1116,3.1113,3.1137,3.1147,3.1134,3.1188,3.1169,3.1173,3.1173,3.1185,3.1192,3.1199,3.1116,3.1116,3.1115,0,0,3.1181,3.1178,3.1197,3.1194,3.1191,3.1181,3.1185,3.1177,3.1172,3.1189,3.1167,3.1176,3.1188,3.1187,3.1187,3.1235,3.1218,3.1238,3.1268,3.1282,3.1287,3.1292,3.1308,3.1314,3.1241,3.1242,3.1242,0,3.1211,3.1226,3.1208,3.1222,3.1224,3.1198,3.1216,3.1215,3.1214,3.1215,3.1201,3.1216,3.1212,3.1234,3.1246,3.1248,3.1252,3.1238,3.1288,3.1293,3.1297,3.1312,3.1318,3.1244,3.1244,3.1243,3.1243,0,3.1263,3.1274,3.1289,3.1288,3.1291,3.1308,3.1292,3.1298,3.1285,3.1276,3.1293,3.1288,3.1292,3.1296,3.1284,3.1316,3.1308,3.1292,3.1266,3.1307,3.1321,3.1326,3.1247,3.1246,3.1246,3.1245,0,0,3.1336,3.1325,3.1331,3.1329,3.1323,3.1331,3.1345,3.1349,3.1353,3.1354,3.1365,3.1376,3.136,3.1361,3.1348,3.136,3.1397,3.1342,3.1341,3.1351,3.1431,3.1442,3.1449,3.1386,3.1387,3.1388,3.143,0,3.1382,3.1406,3.1391,3.1417,3.1426,3.1401,3.1414,3.1411,3.1404,3.141,3.1401,3.1409,3.1388,3.1388,3.1399,3.139,3.1412,3.1387,3.1395,3.1396,3.1395,3.1457,3.1469,3.151,3.1436,3.1437,3.1437,0,3.1439,3.1441,3.1468,3.1459,3.1462,3.1474,3.1475,3.1481,3.1478,3.1471,3.1472,3.1456,3.147,3.1445,3.1463,3.1446,3.1449,3.1445,3.1446,3.1445,3.1418,3.1456,3.1522,3.1528,3.1446,3.1445,3.1444,0,3.1488,3.1497,3.1514,3.1514,3.1505,3.1513,3.1509,3.1504,3.1507,3.1508,3.151,3.1513,3.1514,3.1517,3.1502,3.1486,3.1521,3.1496,3.1515,3.1515,3.1523,3.1522,3.1589,3.1527,3.1527,3.1526,3.1526,0,3.154,3.1557,3.1536,3.1546,3.1565,3.1547,3.1565,3.1559,3.1555,3.1563,3.1543,3.1551,3.1532,3.1538,3.1527,3.1542,3.1543,3.1538,3.1534,3.1539,3.154,3.1539,3.1536,3.1528,3.1528,3.1527,3.1527,0,3.1598,3.1584,3.1601,3.159,3.1588,3.1602,3.1592,3.1601,3.1592,3.1603,3.1605,3.159,3.1597,3.1582,3.1587,3.1579,3.1601,3.1594,3.1602,3.1599,3.1619,3.1617,3.1687,3.1694,3.1629,3.1629,3.163,0,3.1631,3.1643,3.1634,3.1638,3.1635,3.1642,3.1645,3.1627,3.1631,3.1627,3.1636,3.1641,3.1643,3.1654,3.1644,3.1647,3.1639,3.1664,3.1639,3.1643,3.1638,3.1637,3.1637,3.1668,3.1669,3.167,3.167,0,3.1691,3.1684,3.1688,3.169,3.1693,3.1693,3.1693,3.1697,3.1678,3.1683,3.1689,3.1691,3.1695,3.1699,3.17,3.1696,3.168,3.1678,3.1682,3.1686,3.169,3.1687,3.1614,3.1676,3.1676,3.1675,3.1675,3.1675,3.1737,3.1746,3.1741,3.1746,3.1743,3.1742,3.175,3.1741,3.1746,3.1748,3.1737,3.1745,3.1741,3.174,3.1738,3.1743,3.1732,3.1739,3.174,3.1742,3.1744,3.169,3.1744,3.1743,3.1743,3.1743,3.1743,0,3.1795,3.179,3.1795,3.1793,3.1797,3.1782,3.178,3.1784,3.1791,3.1788,3.1791,3.1797,3.1801,3.1791,3.1794,3.18,3.1793,3.1801,3.18,3.1799,3.1755,3.175,3.1807,3.1807,3.1807,3.1807,3.1807,3.1807,3.1825,3.184,3.1832,3.1845,3.184,3.1847,3.1847,3.1846,3.1843,3.1851,3.1854,3.1848,3.1842,3.1844,3.1847,3.1844,3.1845,3.1856,3.185,3.1809,3.1802,3.1796,3.1792,3.1857,3.1857,3.1893,3.1894,3.1894]}]]